Starlink 31015

operational
NORAD ID: 58521 Int'l Des: 2023-191 Owner: SPXS Country: US Constellation: starlink
LEOCIRCULAR

Starlink 31015について

説明を読み込み中...

リアルタイム位置

3D地球を読み込み中...

次回通過

高度履歴

Altitude vs Time

uPlot chart will show altitude changes over time

軌道要素

1 58521U 23191P 25303.74668059 .00000192 00000-0 29318-4 0 9994
2 58521 43.0039 92.1334 0001460 276.8608 83.2068 15.02535722105861
Epoch: Oct 30, 2025 • Age: 23 hours

現在のステータス

高度 560.9 km
速度 7.59 km/s
衛星直下点 32.11°N, 67.74°W
打ち上げ日 Dec 7, 2023
運用期間 1.9 years
タイプ internet

技術仕様

分類 Payload
質量 730.00 kg
乾燥質量 700.00 kg
総質量 730.00 kg
長さ 0.30 m
直径 4.10 m
スパン 29.00 m
形状 Box + pan
製造者 SPXS
バスタイプ Starlink V2M
フェーズステータス In Orbit
所有者/国 SPXS/US

大規模コンステレーション

Loading constellations...